Regional Weather Roundup
Issued by NWS

Home | Current Version | Previous Version | Graphics & Text | Print | Product List | Glossary On
Versions: 1 2 3 4 5 6 7 8 9 10 11 12 13 14 15 16 17 18 19 20 21 22 23 24 25 26 27 28 29 30 31 32 33 34 35 36 37 38 39 40 41 42 43 44 45 46 47 48 49 50
000
ASUS43 KOAX 151802
RWRNE

WEATHER ROUNDUP FOR NEBRASKA
NATIONAL WEATHER SERVICE OMAHA NE
100 PM CDT TUE AUG 15 2017

NOTES: SATELLITE DATA IS BEING USED TO AUGMENT CLOUD COVER ABOVE
       12000 FEET.
       "FAIR" INDICATES FEW OR NO CLOUDS BELOW 12,000 FEET WITH NO
       SIGNIFICANT WEATHER AND/OR OBSTRUCTIONS TO VISIBILITY.


NEZ001>004-019>022-054>056-151900-
NEBRASKA PANHANDLE

CITY           SKY/WX    TMP DP  RH WIND       PRES   REMARKS
SCOTTSBLUFF    CLOUDY    76  58  53 E6        29.91F
6HR MIN TEMP:  58; 6HR MAX TEMP:  77;

ALLIANCE       SUNNY     73  62  68 CALM      29.91F
6HR MIN TEMP:  63; 6HR MAX TEMP:  74;

GORDON         CLOUDY    77  61  58 SW7       29.90F
6HR MIN TEMP:  62; 6HR MAX TEMP:  78;

KIMBALL        SUNNY     76  60  57 E3        29.96S
SIDNEY         MOSUNNY   76  62  62 VRB5      29.94S
6HR MIN TEMP:  64; 6HR MAX TEMP:  76;

$$

NEZ057>060-069>072-079>082-151900-
SOUTHWEST NEBRASKA

CITY           SKY/WX    TMP DP  RH WIND       PRES   REMARKS
NORTH PLATTE   CLOUDY    74  68  81 NE8       29.84F
6HR MIN TEMP:  64; 6HR MAX TEMP:  74; 6HR PCP: TRACE;

IMPERIAL       CLOUDY    77  66  68 SE8       29.85F
6HR MIN TEMP:  65; 6HR MAX TEMP:  77; 6HR PCP:  0.02;

LEXINGTON      CLOUDY    79  71  76 SE8       29.84F
MCCOOK         MOSUNNY   84  70  62 SE8       29.83F
6HR MIN TEMP:  65; 6HR MAX TEMP:  84;

OGALLALA       MOSUNNY   76  67  72 S3        29.86R
$$

NEZ005>010-023>029-035>040-094-151900-
NORTH CENTRAL NEBRASKA

CITY           SKY/WX    TMP DP  RH WIND       PRES   REMARKS
AINSWORTH      CLOUDY    73  66  78 SE9       29.85S
BROKEN BOW     CLOUDY    72  66  81 S6        29.86R
6HR MIN TEMP:  66; 6HR MAX TEMP:  74;

O`NEILL        HVY RAIN  66  66 100 NW5       29.89F
ORD            CLOUDY    79  67  66 SE14      29.82F
6HR MIN TEMP:  64; 6HR MAX TEMP:  79; 6HR PCP:  0.50;

THEDFORD       MOSUNNY   78  66  68 S10       29.85F
$$

NEZ041-046>049-061>064-073>077-083>087-151900-
SOUTH CENTRAL NEBRASKA

CITY           SKY/WX    TMP DP  RH WIND       PRES   REMARKS
GRAND ISLAND   PTSUNNY   77  71  82 SE14      29.85F
6HR MIN TEMP:  65; 6HR MAX TEMP:  77;

AURORA         MOSUNNY   78  73  85 SE10      29.86F
HASTINGS       MOSUNNY   82  72  71 SE12      29.84F
6HR MIN TEMP:  67; 6HR MAX TEMP:  83;

HEBRON         PTSUNNY   88  71  56 S9        29.85F HX  93
HOLDREGE       CLOUDY    84  69  59 S13G21    29.83F
KEARNEY        CLOUDY    82  73  74 SE16      29.83F
YORK           PTSUNNY   77  72  83 E10       29.86F
$$

NEZ011>018-030>034-042>045-151900-
NORTHEAST NEBRASKA

CITY           SKY/WX    TMP DP  RH WIND       PRES   REMARKS
NORFOLK        CLOUDY    79  69  71 SE12G21   29.84S
6HR MIN TEMP:  63; 6HR MAX TEMP:  79; 6HR PCP:  0.07;

ALBION         CLOUDY    79  71  76 SE13      29.84F
BLAIR          LGT RAIN  78  70  75 SE10      29.89F
COLUMBUS       CLOUDY    74  69  85 SE15      29.86F
FREMONT        MOSUNNY   80  68  67 SE16G23   29.87F
TEKAMAH        MOSUNNY   78  67  68 SE16G26   29.86F
6HR MIN TEMP:  64; 6HR MAX TEMP:  78; 6HR PCP:  1.18;

WAYNE          LGT RAIN  70  67  91 NW3       29.88S
$$

NEZ050>053-065>068-078-088>093-151900-
SOUTHEAST NEBRASKA

CITY           SKY/WX    TMP DP  RH WIND       PRES   REMARKS
LINCOLN        PTSUNNY   79  70  74 E10       29.88F
6HR MIN TEMP:  68; 6HR MAX TEMP:  79;

OMAHA EPPLEY   PTSUNNY   78  65  63 SE20      29.90S
6HR MIN TEMP:  67; 6HR MAX TEMP:  79; 6HR PCP:  0.35;

BEATRICE       MOSUNNY   88  71  55 S13       29.85F HX  93
FALLS CITY     MOSUNNY   86  70  58 SE14      29.89S HX  90
6HR MIN TEMP:  67; 6HR MAX TEMP:  86;

NEBRASKA CITY  CLOUDY    78  74  90 E10       29.90F
PLATTSMOUTH    CLOUDY    75  69  80 E9        29.91F
$$

NEZ044-045-051>053-067-151900-
OMAHA AREA

CITY           SKY/WX    TMP DP  RH WIND       PRES   REMARKS
OMAHA EPPLEY   PTSUNNY   78  65  63 SE20      29.90S
6HR MIN TEMP:  67; 6HR MAX TEMP:  79; 6HR PCP:  0.35;

BLAIR          LGT RAIN  78  70  75 SE10      29.89F
FREMONT        MOSUNNY   80  68  67 SE16G23   29.87F
MILLARD        CLOUDY    80  70  70 SE12      29.89F
OFFUTT AFB     MOSUNNY   78  67  68 E10       29.89F
PLATTSMOUTH    CLOUDY    75  69  80 E9        29.91F
WAHOO          CLOUDY    78  69  73 SE15      29.88F
$$




USA.gov is the U.S. government's official web portal to all federal, state and local government web resources and services.